Location: Cluny
(50.9333°N, 112.8167°W)
Time: 18:23:20
(UTC-07:00)

Hamsat - Visible Passes

Search period start: 11 February 2016 00:00
Search period end: 21 February 2016 00:00
Orbit: 588 x 620 km, 97.6° (Epoch: 10 February)

Date Brightness Start Highest point End Pass type
(mag) Time Alt. Az. Time Alt. Az. Time Alt. Az.
11 Feb ? 04:30:42 10° NE 04:34:02 21° E 04:37:20 10° SE visible
11 Feb ? 06:05:54 10° N 06:10:07 50° WNW 06:14:18 10° SW visible
12 Feb ? 04:42:45 10° NE 04:46:28 27° E 04:50:09 10° SSE visible
12 Feb ? 06:18:20 10° N 06:22:24 39° WNW 06:26:25 10° SW visible
13 Feb ? 04:54:52 10° NNE 04:58:52 35° E 05:02:51 10° SSE visible
13 Feb ? 06:30:49 10° N 06:34:38 31° WNW 06:38:26 10° SW visible
14 Feb ? 05:07:04 10° NNE 05:11:15 45° E 05:15:26 10° S visible
14 Feb ? 06:43:21 10° N 06:46:51 24° WNW 06:50:21 10° WSW visible
15 Feb ? 05:19:19 10° NNE 05:23:38 60° E 05:27:55 10° S visible
15 Feb ? 06:55:56 10° NNW 06:59:03 20° WNW 07:02:10 10° WSW visible
16 Feb ? 03:58:50 10° ENE 03:59:24 10° E 03:59:59 10° E visible
16 Feb ? 05:31:36 10° NNE 05:35:58 79° ESE 05:40:18 10° S visible
17 Feb ? 04:09:42 10° ENE 04:11:54 14° E 04:14:05 10° ESE visible
17 Feb ? 05:43:55 10° NNE 05:48:17 80° WNW 05:52:36 10° SSW visible
18 Feb ? 04:21:24 10° NE 04:24:21 18° E 04:27:17 10° SE visible
18 Feb ? 05:56:16 10° N 06:00:34 61° WNW 06:04:51 10° SSW visible
19 Feb ? 04:33:20 10° NE 04:36:48 23° E 04:40:13 10° SE visible
19 Feb ? 06:08:40 10° N 06:12:50 46° WNW 06:16:59 10° SW visible
20 Feb ? 04:45:24 10° NNE 04:49:13 29° E 04:52:59 10° SSE visible
20 Feb ? 06:21:05 10° N 06:25:05 36° WNW 06:29:02 10° SW visible
